| time (UTC) | temp F | wind direction | speed MPH | gust MPH | rain 1hr in | rain 24hr in | rain mn in | humidity % | barometer mb |
| 20260905222520 | 79 | 252 | 0.0 | 0.0 | 0.00 | 0.00 | 0.00 | 74 | 1003.3 |
| 20260905222014 | 80 | 251 | 0.0 | 0.0 | 0.00 | 0.00 | 0.00 | 72 | 1003.3 |
| 20260905221731 | 80 | 251 | 0.0 | 0.0 | 0.00 | 0.00 | 0.00 | 71 | 1003.3 |
| 20260905221002 | 81 | 252 | 0.0 | 0.0 | 0.00 | 0.00 | 0.00 | 71 | 1003.2 |
| 20260905220456 | 82 | 251 | 0.0 | 1.0 | 0.00 | 0.00 | 0.00 | 70 | 1003.2 |
| 20260905215951 | 82 | 252 | 0.0 | 1.0 | 0.00 | 0.00 | 0.00 | 70 | 1003.2 |
| 20260905215444 | 83 | 243 | 0.0 | 1.0 | 0.00 | 0.00 | 0.00 | 70 | 1003.1 |
| 20260905214937 | 82 | 243 | 0.0 | 1.0 | 0.00 | 0.00 | 0.00 | 71 | 1003.0 |
| 20260905214438 | 82 | 244 | 0.0 | 1.0 | 0.00 | 0.00 | 0.00 | 68 | 1003.0 |
| 20260905213938 | 82 | 238 | 0.0 | 1.0 | 0.00 | 0.00 | 0.00 | 66 | 1003.1 |
| 20260905213440 | 83 | 238 | 0.0 | 2.0 | 0.00 | 0.00 | 0.00 | 63 | 1003.0 |
| 20260905212437 | 83 | 210 | 0.0 | 1.0 | 0.00 | 0.00 | 0.00 | 62 | 1002.9 |
| 20260905211938 | 83 | 58 | 0.0 | 1.0 | 0.00 | 0.00 | 0.00 | 63 | 1002.7 |
| 20260905211437 | 83 | 58 | 0.0 | 3.0 | 0.00 | 0.00 | 0.00 | 65 | 1002.7 |
| 20260905211205 | 83 | 58 | 1.0 | 3.0 | 0.00 | 0.00 | 0.00 | 64 | 1002.7 |
| 20260905210438 | 83 | 84 | 0.0 | 2.0 | 0.00 | 0.00 | 0.00 | 65 | 1002.7 |
| 20260905205935 | 83 | 84 | 1.0 | 3.0 | 0.00 | 0.00 | 0.00 | 65 | 1002.7 |
| 20260905205655 | 82 | 87 | 2.0 | 7.0 | 0.00 | 0.00 | 0.00 | 66 | 1002.7 |
| 20260905204435 | 83 | 60 | 1.0 | 5.0 | 0.00 | 0.00 | 0.00 | 63 | 1002.6 |
| 20260905204153 | 84 | 96 | 0.0 | 4.0 | 0.00 | 0.00 | 0.00 | 65 | 1002.7 |
| 20260905203652 | 83 | 241 | 0.0 | 3.0 | 0.00 | 0.00 | 0.00 | 63 | 1002.8 |
| 20260905202930 | 83 | 97 | 1.0 | 3.0 | 0.00 | 0.00 | 0.00 | 65 | 1002.9 |
| 20260905202430 | 83 | 243 | 1.0 | 3.0 | 0.00 | 0.00 | 0.00 | 68 | 1002.8 |
| 20260905201930 | 82 | 262 | 0.0 | 1.0 | 0.00 | 0.00 | 0.00 | 71 | 1002.8 |
| 20260905201430 | 82 | 34 | 0.0 | 2.0 | 0.00 | 0.00 | 0.00 | 71 | 1002.8 |
| 20260905200930 | 81 | 34 | 1.0 | 4.0 | 0.00 | 0.00 | 0.00 | 70 | 1002.9 |
| 20260905200429 | 81 | 61 | 0.0 | 4.0 | 0.00 | 0.00 | 0.00 | 68 | 1002.9 |
| 20260905200150 | 82 | 85 | 1.0 | 5.0 | 0.00 | 0.00 | 0.00 | 67 | 1002.9 |
| 20260905195431 | 82 | 101 | 1.0 | 6.0 | 0.00 | 0.00 | 0.00 | 65 | 1002.8 |
| 20260905194930 | 82 | 328 | 2.0 | 6.0 | 0.00 | 0.00 | 0.00 | 66 | 1002.9 |
| 20260905194426 | 82 | 65 | 1.0 | 6.0 | 0.00 | 0.00 | 0.00 | 66 | 1002.8 |
| 20260905193925 | 82 | 63 | 1.0 | 6.0 | 0.00 | 0.00 | 0.00 | 66 | 1002.8 |
| 20260905193425 | 82 | 65 | 0.0 | 3.0 | 0.00 | 0.00 | 0.00 | 67 | 1002.9 |
| 20260905192926 | 82 | 47 | 1.0 | 3.0 | 0.00 | 0.00 | 0.00 | 68 | 1003.0 |
| 20260905192425 | 81 | 68 | 1.0 | 3.0 | 0.00 | 0.00 | 0.00 | 69 | 1003.0 |
| 20260905191926 | 81 | 101 | 0.0 | 3.0 | 0.00 | 0.00 | 0.00 | 72 | 1003.0 |
| 20260905191425 | 80 | 50 | 0.0 | 2.0 | 0.00 | 0.00 | 0.00 | 74 | 1003.1 |
| 20260905190925 | 79 | 47 | 0.0 | 3.0 | 0.00 | 0.00 | 0.00 | 73 | 1003.2 |
| 20260905190426 | 79 | 68 | 0.0 | 4.0 | 0.00 | 0.00 | 0.00 | 73 | 1003.2 |
| 20260905185921 | 79 | 79 | 0.0 | 4.0 | 0.00 | 0.00 | 0.00 | 72 | 1003.3 |
| 20260905185422 | 79 | 98 | 0.0 | 2.0 | 0.00 | 0.00 | 0.00 | 74 | 1003.5 |
| 20260905185145 | 79 | 28 | 0.0 | 3.0 | 0.00 | 0.00 | 0.00 | 74 | 1003.6 |
| 20260905184422 | 79 | 29 | 0.0 | 3.0 | 0.00 | 0.00 | 0.00 | 73 | 1003.5 |
| 20260905183922 | 80 | 66 | 0.0 | 0.0 | 0.00 | 0.00 | 0.00 | 75 | 1003.6 |
| 20260905183639 | 80 | 65 | 0.0 | 1.0 | 0.00 | 0.00 | 0.00 | 75 | 1003.7 |
| 20260905182921 | 80 | 66 | 0.0 | 2.0 | 0.00 | 0.00 | 0.00 | 74 | 1003.7 |
| 20260905182422 | 80 | 46 | 0.0 | 3.0 | 0.00 | 0.00 | 0.00 | 74 | 1003.8 |
| 20260905182146 | 80 | 103 | 0.0 | 3.0 | 0.00 | 0.00 | 0.00 | 74 | 1004.0 |
| 20260905181421 | 81 | 61 | 0.0 | 3.0 | 0.00 | 0.00 | 0.00 | 76 | 1004.0 |
| 20260905180923 | 80 | 61 | 0.0 | 3.0 | 0.00 | 0.00 | 0.00 | 76 | 1004.0 |
| 20260905180424 | 81 | 30 | 0.0 | 4.0 | 0.00 | 0.00 | 0.00 | 75 | 1004.0 |
| 20260905175924 | 81 | 84 | 0.0 | 4.0 | 0.00 | 0.00 | 0.00 | 73 | 1004.0 |
| 20260905175424 | 81 | 53 | 0.0 | 2.0 | 0.00 | 0.00 | 0.00 | 74 | 1004.1 |
| 20260905175151 | 81 | 53 | 0.0 | 2.0 | 0.00 | 0.00 | 0.00 | 71 | 1004.2 |
| 20260905174422 | 82 | 62 | 0.0 | 0.0 | 0.00 | 0.00 | 0.00 | 74 | 1004.2 |
| 20260905173640 | 82 | 62 | 0.0 | 0.0 | 0.00 | 0.00 | 0.00 | 75 | 1004.3 |
| 20260905172921 | 82 | 62 | 0.0 | 0.0 | 0.00 | 0.00 | 0.00 | 75 | 1004.4 |
| 20260905172419 | 81 | 62 | 0.0 | 1.0 | 0.00 | 0.00 | 0.00 | 73 | 1004.3 |
| 20260905171918 | 81 | 62 | 0.0 | 2.0 | 0.00 | 0.00 | 0.00 | 74 | 1004.3 |
| 20260905171416 | 81 | 62 | 0.0 | 3.0 | 0.00 | 0.00 | 0.00 | 73 | 1004.4 |
| 20260905170913 | 81 | 55 | 1.0 | 4.0 | 0.00 | 0.00 | 0.00 | 74 | 1004.5 |
| 20260905170630 | 81 | 57 | 1.0 | 4.0 | 0.00 | 0.00 | 0.00 | 72 | 1004.4 |
| 20260905165910 | 80 | 285 | 0.0 | 1.0 | 0.00 | 0.00 | 0.00 | 75 | 1004.4 |
| 20260905165408 | 80 | 285 | 0.0 | 4.0 | 0.00 | 0.00 | 0.00 | 74 | 1004.4 |
| 20260905164905 | 80 | 278 | 0.0 | 4.0 | 0.00 | 0.00 | 0.00 | 74 | 1004.4 |
| 20260905164404 | 80 | 84 | 1.0 | 5.0 | 0.00 | 0.00 | 0.00 | 75 | 1004.5 |
| 20260905163903 | 80 | 83 | 1.0 | 5.0 | 0.00 | 0.00 | 0.00 | 73 | 1004.5 |
| 20260905163404 | 80 | 56 | 0.0 | 3.0 | 0.00 | 0.00 | 0.00 | 74 | 1004.5 |
| 20260905162903 | 80 | 106 | 2.0 | 7.0 | 0.00 | 0.00 | 0.00 | 75 | 1004.4 |
| 20260905162403 | 80 | 106 | 3.0 | 7.0 | 0.00 | 0.00 | 0.00 | 71 | 1004.4 |
| 20260905161901 | 80 | 84 | 1.0 | 5.0 | 0.00 | 0.00 | 0.00 | 72 | 1004.4 |
| 20260905161402 | 80 | 84 | 1.0 | 5.0 | 0.00 | 0.00 | 0.00 | 71 | 1004.5 |
| 20260905160902 | 80 | 58 | 1.0 | 4.0 | 0.00 | 0.00 | 0.00 | 71 | 1004.7 |
| 20260905160401 | 80 | 91 | 0.0 | 3.0 | 0.00 | 0.00 | 0.00 | 71 | 1004.8 |
| 20260905155900 | 80 | 91 | 0.0 | 3.0 | 0.00 | 0.00 | 0.00 | 75 | 1004.8 |
| 20260905154848 | 80 | 103 | 1.0 | 4.0 | 0.00 | 0.00 | 0.00 | 71 | 1004.9 |
| 20260905154603 | 80 | 47 | 1.0 | 5.0 | 0.00 | 0.00 | 0.00 | 72 | 1005.0 |
| 20260905153835 | 80 | 84 | 0.0 | 5.0 | 0.00 | 0.00 | 0.00 | 71 | 1005.0 |
| 20260905153330 | 80 | 86 | 1.0 | 7.0 | 0.00 | 0.00 | 0.00 | 71 | 1005.1 |
| 20260905153048 | 80 | 60 | 2.0 | 7.0 | 0.00 | 0.00 | 0.00 | 71 | 1005.1 |
| 20260905151811 | 80 | 77 | 0.0 | 3.0 | 0.00 | 0.00 | 0.00 | 73 | 1004.9 |
| 20260905151533 | 80 | 345 | 1.0 | 5.0 | 0.00 | 0.00 | 0.00 | 71 | 1004.9 |
| 20260905150800 | 80 | 70 | 1.0 | 5.0 | 0.00 | 0.00 | 0.00 | 72 | 1004.9 |
| 20260905150516 | 80 | 6 | 1.0 | 5.0 | 0.00 | 0.00 | 0.00 | 73 | 1004.9 |
| 20260905145746 | 79 | 89 | 0.0 | 2.0 | 0.00 | 0.00 | 0.00 | 75 | 1005.0 |
| 20260905145240 | 79 | 151 | 1.0 | 4.0 | 0.00 | 0.00 | 0.00 | 76 | 1004.9 |
| 20260905144735 | 79 | 149 | 2.0 | 7.0 | 0.00 | 0.00 | 0.00 | 75 | 1005.0 |
| 20260905144230 | 79 | 100 | 2.0 | 7.0 | 0.00 | 0.00 | 0.00 | 74 | 1004.9 |
| 20260905143944 | 79 | 64 | 2.0 | 5.0 | 0.00 | 0.00 | 0.00 | 75 | 1004.9 |
| 20260905143217 | 79 | 358 | 2.0 | 5.0 | 0.00 | 0.00 | 0.00 | 76 | 1004.6 |
| 20260905142711 | 78 | 71 | 1.0 | 8.0 | 0.00 | 0.00 | 0.00 | 78 | 1004.6 |
| 20260905142424 | 78 | 254 | 2.0 | 8.0 | 0.00 | 0.00 | 0.00 | 79 | 1004.5 |
| 20260905141700 | 78 | 53 | 3.0 | 9.0 | 0.00 | 0.00 | 0.00 | 78 | 1004.5 |
| 20260905141153 | 78 | 34 | 3.0 | 11.0 | 0.00 | 0.00 | 0.00 | 77 | 1004.6 |
| 20260905140908 | 78 | 25 | 3.0 | 11.0 | 0.00 | 0.00 | 0.00 | 79 | 1004.5 |
| 20260905140404 | 78 | 23 | 4.0 | 8.0 | 0.00 | 0.00 | 0.00 | 81 | 1004.4 |
| 20260905135635 | 78 | 53 | 4.0 | 9.0 | 0.00 | 0.00 | 0.00 | 81 | 1004.4 |
| 20260905135130 | 78 | 76 | 3.0 | 9.0 | 0.00 | 0.00 | 0.00 | 81 | 1004.4 |
| 20260905134623 | 77 | 46 | 4.0 | 11.0 | 0.00 | 0.00 | 0.00 | 81 | 1004.2 |
| 20260905134117 | 77 | 98 | 3.0 | 11.0 | 0.00 | 0.00 | 0.00 | 82 | 1004.3 |
| 20260905133831 | 77 | 56 | 2.0 | 7.0 | 0.00 | 0.00 | 0.00 | 84 | 1004.3 |
| 20260905133105 | 77 | 82 | 2.0 | 8.0 | 0.00 | 0.00 | 0.00 | 84 | 1004.4 |
| 20260905132600 | 76 | 105 | 2.0 | 8.0 | 0.00 | 0.00 | 0.00 | 83 | 1004.3 |
| 20260905132053 | 76 | 347 | 3.0 | 7.0 | 0.00 | 0.00 | 0.00 | 83 | 1004.3 |
| 20260905131546 | 76 | 70 | 2.0 | 6.0 | 0.00 | 0.00 | 0.00 | 82 | 1004.4 |
| 20260905131041 | 76 | 71 | 2.0 | 10.0 | 0.00 | 0.00 | 0.00 | 81 | 1004.3 |
| 20260905130535 | 75 | 84 | 3.0 | 10.0 | 0.00 | 0.00 | 0.00 | 80 | 1004.3 |
| 20260905125742 | 75 | 58 | 3.0 | 8.0 | 0.00 | 0.00 | 0.00 | 74 | 1004.0 |
| 20260905125016 | 74 | 87 | 2.0 | 8.0 | 0.00 | 0.00 | 0.00 | 70 | 1004.1 |
| 20260905124511 | 74 | 77 | 1.0 | 5.0 | 0.00 | 0.00 | 0.00 | 68 | 1004.2 |
| 20260905124005 | 74 | 67 | 1.0 | 5.0 | 0.00 | 0.00 | 0.00 | 67 | 1004.3 |
| 20260905122953 | 74 | 98 | 0.0 | 2.0 | 0.00 | 0.00 | 0.00 | 67 | 1004.3 |
| 20260905122446 | 74 | 276 | 0.0 | 1.0 | 0.00 | 0.00 | 0.00 | 67 | 1004.2 |
| 20260905121941 | 73 | 276 | 0.0 | 2.0 | 0.00 | 0.00 | 0.00 | 68 | 1004.2 |
| 20260905121434 | 73 | 86 | 0.0 | 2.0 | 0.00 | 0.00 | 0.00 | 68 | 1004.2 |
| 20260905121156 | 73 | 238 | 0.0 | 1.0 | 0.00 | 0.00 | 0.00 | 68 | 1004.1 |
| 20260905120422 | 72 | 238 | 0.0 | 1.0 | 0.00 | 0.00 | 0.00 | 68 | 1004.2 |
| 20260905115917 | 72 | 238 | 0.0 | 1.0 | 0.00 | 0.00 | 0.00 | 68 | 1004.0 |
| 20260905115637 | 72 | 238 | 0.0 | 0.0 | 0.00 | 0.00 | 0.00 | 68 | 1003.9 |
| 20260905114904 | 71 | 238 | 0.0 | 1.0 | 0.00 | 0.00 | 0.00 | 68 | 1003.8 |
| 20260905114401 | 71 | 238 | 0.0 | 1.0 | 0.00 | 0.00 | 0.00 | 68 | 1003.8 |
| 20260905113853 | 71 | 238 | 0.0 | 1.0 | 0.00 | 0.00 | 0.00 | 68 | 1004.0 |
| 20260905113347 | 71 | 238 | 0.0 | 0.0 | 0.00 | 0.00 | 0.00 | 68 | 1004.0 |
| 20260905113111 | 71 | 238 | 0.0 | 0.0 | 0.00 | 0.00 | 0.00 | 68 | 1003.9 |
| 20260905112335 | 71 | 238 | 0.0 | 0.0 | 0.00 | 0.00 | 0.00 | 68 | 1003.7 |
| 20260905111830 | 71 | 238 | 0.0 | 0.0 | 0.00 | 0.00 | 0.00 | 68 | 1003.6 |
| 20260905111323 | 71 | 238 | 0.0 | 0.0 | 0.00 | 0.00 | 0.00 | 68 | 1003.6 |
| 20260905110817 | 71 | 238 | 0.0 | 0.0 | 0.00 | 0.00 | 0.00 | 68 | 1003.6 |
| 20260905110311 | 71 | 238 | 0.0 | 0.0 | 0.00 | 0.00 | 0.00 | 69 | 1003.5 |
| 20260905105805 | 71 | 238 | 0.0 | 0.0 | 0.00 | 0.00 | 0.00 | 69 | 1003.6 |
| 20260905105300 | 71 | 238 | 0.0 | 0.0 | 0.00 | 0.00 | 0.00 | 69 | 1003.4 |
| 20260905104752 | 71 | 238 | 0.0 | 0.0 | 0.00 | 0.00 | 0.00 | 69 | 1003.3 |
| 20260905104246 | 71 | 238 | 0.0 | 0.0 | 0.00 | 0.00 | 0.00 | 68 | 1003.2 |
| 20260905103741 | 71 | 238 | 0.0 | 0.0 | 0.00 | 0.00 | 0.00 | 68 | 1003.1 |
| 20260905103235 | 71 | 238 | 0.0 | 1.0 | 0.00 | 0.00 | 0.00 | 68 | 1003.1 |
| 20260905102730 | 71 | 238 | 0.0 | 1.0 | 0.00 | 0.00 | 0.00 | 68 | 1003.2 |
| 20260905102223 | 71 | 254 | 0.0 | 1.0 | 0.00 | 0.00 | 0.00 | 68 | 1003.2 |
| 20260905101716 | 71 | 254 | 0.0 | 0.0 | 0.00 | 0.00 | 0.00 | 68 | 1003.1 |
| 20260905101211 | 71 | 254 | 0.0 | 0.0 | 0.00 | 0.00 | 0.00 | 68 | 1003.1 |
| 20260905100705 | 71 | 254 | 0.0 | 0.0 | 0.00 | 0.00 | 0.00 | 68 | 1003.0 |
| 20260905100201 | 71 | 254 | 0.0 | 0.0 | 0.00 | 0.00 | 0.00 | 69 | 1003.0 |
| 20260905095653 | 71 | 254 | 0.0 | 0.0 | 0.00 | 0.00 | 0.00 | 68 | 1003.0 |
| 20260905095146 | 71 | 254 | 0.0 | 1.0 | 0.00 | 0.00 | 0.00 | 68 | 1002.9 |
| 20260905094640 | 71 | 254 | 0.0 | 1.0 | 0.00 | 0.00 | 0.00 | 68 | 1002.9 |
| 20260905094356 | 71 | 254 | 0.0 | 1.0 | 0.00 | 0.00 | 0.00 | 69 | 1002.8 |
| 20260905093630 | 71 | 254 | 0.0 | 0.0 | 0.00 | 0.00 | 0.00 | 69 | 1002.9 |
| 20260905093123 | 71 | 254 | 0.0 | 0.0 | 0.00 | 0.00 | 0.00 | 69 | 1002.9 |
| 20260905092617 | 71 | 254 | 0.0 | 0.0 | 0.00 | 0.00 | 0.00 | 69 | 1002.9 |
| 20260905092331 | 71 | 254 | 0.0 | 0.0 | 0.00 | 0.00 | 0.00 | 68 | 1002.7 |
| 20260905091605 | 71 | 254 | 0.0 | 0.0 | 0.00 | 0.00 | 0.00 | 68 | 1002.8 |
| 20260905091101 | 71 | 254 | 0.0 | 1.0 | 0.00 | 0.00 | 0.00 | 68 | 1002.7 |
| 20260905090553 | 71 | 254 | 0.0 | 1.0 | 0.00 | 0.00 | 0.00 | 68 | 1002.7 |
| 20260905090047 | 71 | 257 | 0.0 | 0.0 | 0.00 | 0.00 | 0.00 | 69 | 1002.7 |
| 20260905085541 | 71 | 257 | 0.0 | 0.0 | 0.00 | 0.00 | 0.00 | 69 | 1002.8 |
| 20260905085257 | 71 | 257 | 0.0 | 0.0 | 0.00 | 0.00 | 0.00 | 69 | 1002.9 |
| 20260905084530 | 70 | 257 | 0.0 | 0.0 | 0.00 | 0.00 | 0.00 | 69 | 1002.9 |
| 20260905083517 | 71 | 257 | 0.0 | 0.0 | 0.00 | 0.00 | 0.00 | 70 | 1002.8 |
| 20260905083237 | 71 | 257 | 0.0 | 0.0 | 0.00 | 0.00 | 0.00 | 69 | 1002.9 |
| 20260905082505 | 71 | 257 | 0.0 | 0.0 | 0.00 | 0.00 | 0.00 | 69 | 1003.0 |
| 20260905082001 | 71 | 257 | 0.0 | 0.0 | 0.00 | 0.00 | 0.00 | 69 | 1003.0 |
| 20260905081453 | 71 | 257 | 0.0 | 0.0 | 0.00 | 0.00 | 0.00 | 70 | 1002.9 |
| 20260905080947 | 71 | 257 | 0.0 | 0.0 | 0.00 | 0.00 | 0.00 | 70 | 1003.0 |
| 20260905080441 | 71 | 257 | 0.0 | 0.0 | 0.00 | 0.00 | 0.00 | 70 | 1003.1 |
| 20260905075935 | 71 | 257 | 0.0 | 0.0 | 0.00 | 0.00 | 0.00 | 70 | 1003.1 |
| 20260905075430 | 71 | 257 | 0.0 | 0.0 | 0.00 | 0.00 | 0.00 | 70 | 1003.2 |
| 20260905074923 | 71 | 257 | 0.0 | 0.0 | 0.00 | 0.00 | 0.00 | 70 | 1003.2 |
| 20260905074417 | 71 | 257 | 0.0 | 0.0 | 0.00 | 0.00 | 0.00 | 70 | 1003.2 |
| 20260905073911 | 71 | 257 | 0.0 | 0.0 | 0.00 | 0.00 | 0.00 | 70 | 1003.2 |
| 20260905073626 | 72 | 257 | 0.0 | 0.0 | 0.00 | 0.00 | 0.00 | 70 | 1003.2 |
| 20260905073125 | 72 | 257 | 0.0 | 0.0 | 0.00 | 0.00 | 0.00 | 70 | 1003.2 |
| 20260905072400 | 72 | 257 | 0.0 | 0.0 | 0.00 | 0.00 | 0.00 | 70 | 1003.3 |
| 20260905071900 | 72 | 257 | 0.0 | 0.0 | 0.00 | 0.00 | 0.00 | 70 | 1003.3 |
| 20260905071621 | 72 | 257 | 0.0 | 0.0 | 0.00 | 0.00 | 0.00 | 70 | 1003.3 |
| 20260905070859 | 72 | 257 | 0.0 | 0.0 | 0.00 | 0.00 | 0.00 | 70 | 1003.4 |
| 20260905065855 | 73 | 257 | 0.0 | 0.0 | 0.00 | 0.00 | 0.00 | 70 | 1003.4 |
| 20260905065356 | 73 | 257 | 0.0 | 0.0 | 0.00 | 0.00 | 0.00 | 70 | 1003.5 |
| 20260905064853 | 73 | 257 | 0.0 | 2.0 | 0.00 | 0.00 | 0.00 | 69 | 1003.6 |
| 20260905064352 | 73 | 258 | 0.0 | 2.0 | 0.00 | 0.00 | 0.00 | 69 | 1003.6 |
| 20260905063850 | 73 | 209 | 0.0 | 2.0 | 0.00 | 0.00 | 0.00 | 69 | 1003.6 |
| 20260905063350 | 73 | 229 | 0.0 | 2.0 | 0.00 | 0.00 | 0.00 | 69 | 1003.7 |
| 20260905062850 | 73 | 270 | 0.0 | 1.0 | 0.00 | 0.00 | 0.00 | 69 | 1003.7 |
| 20260905062347 | 73 | 270 | 0.0 | 1.0 | 0.00 | 0.00 | 0.00 | 69 | 1003.7 |
| 20260905061845 | 73 | 271 | 0.0 | 1.0 | 0.00 | 0.00 | 0.00 | 69 | 1003.8 |
| 20260905061605 | 73 | 134 | 0.0 | 1.0 | 0.00 | 0.00 | 0.00 | 69 | 1003.8 |
| 20260905060843 | 73 | 134 | 0.0 | 1.0 | 0.00 | 0.00 | 0.00 | 69 | 1003.8 |
| 20260905060601 | 73 | 160 | 0.0 | 1.0 | 0.00 | 0.00 | 0.00 | 69 | 1003.8 |
| 20260905055841 | 73 | 131 | 0.0 | 0.0 | 0.00 | 0.00 | 0.00 | 69 | 1003.7 |
| 20260905055340 | 73 | 131 | 0.0 | 1.0 | 0.00 | 0.00 | 0.00 | 69 | 1003.8 |
| 20260905054841 | 73 | 131 | 0.0 | 1.0 | 0.00 | 0.00 | 0.00 | 69 | 1003.8 |
| 20260905054338 | 73 | 257 | 0.0 | 1.0 | 0.00 | 0.00 | 0.00 | 69 | 1003.9 |
| 20260905053836 | 73 | 229 | 0.0 | 1.0 | 0.00 | 0.00 | 0.00 | 69 | 1003.9 |
| 20260905053335 | 73 | 184 | 0.0 | 3.0 | 0.00 | 0.00 | 0.00 | 69 | 1004.0 |
| 20260905052834 | 73 | 153 | 0.0 | 3.0 | 0.00 | 0.00 | 0.00 | 69 | 1004.2 |
| 20260905052554 | 73 | 221 | 0.0 | 2.0 | 0.00 | 0.00 | 0.00 | 69 | 1004.2 |
| 20260905051835 | 73 | 221 | 0.0 | 2.0 | 0.00 | 0.00 | 0.00 | 69 | 1004.3 |
| 20260905051333 | 73 | 204 | 0.0 | 2.0 | 0.00 | 0.00 | 0.00 | 69 | 1004.3 |
| 20260905050832 | 73 | 205 | 0.0 | 2.0 | 0.00 | 0.00 | 0.00 | 69 | 1004.3 |
| 20260905050330 | 73 | 154 | 0.0 | 0.0 | 0.00 | 0.00 | 0.00 | 69 | 1004.4 |
| 20260905045831 | 73 | 154 | 0.0 | 0.0 | 0.00 | 0.00 | 0.00 | 70 | 1004.4 |
| 20260905044830 | 73 | 154 | 0.0 | 1.0 | 0.00 | 0.00 | 0.00 | 70 | 1004.5 |
| 20260905044330 | 73 | 236 | 0.0 | 1.0 | 0.00 | 0.00 | 0.00 | 70 | 1004.4 |
| 20260905043830 | 73 | 236 | 0.0 | 1.0 | 0.00 | 0.00 | 0.00 | 70 | 1004.4 |
| 20260905043330 | 73 | 210 | 0.0 | 2.0 | 0.00 | 0.00 | 0.00 | 70 | 1004.4 |
| 20260905042830 | 73 | 210 | 0.0 | 2.0 | 0.00 | 0.00 | 0.00 | 70 | 1004.5 |
| 20260905042331 | 73 | 265 | 0.0 | 1.0 | 0.00 | 0.00 | 0.00 | 70 | 1004.6 |
| 20260905041830 | 73 | 221 | 0.0 | 1.0 | 0.00 | 0.00 | 0.00 | 70 | 1004.6 |
| 20260905041551 | 73 | 221 | 0.0 | 1.0 | 0.00 | 0.00 | 0.00 | 70 | 1004.6 |
| 20260905041054 | 73 | 194 | 0.0 | 0.0 | 0.00 | 0.00 | 0.00 | 71 | 1004.6 |
| 20260905040333 | 73 | 194 | 0.0 | 1.0 | 0.00 | 0.00 | 0.00 | 71 | 1004.6 |
| 20260905040051 | 74 | 194 | 0.0 | 1.0 | 0.00 | 0.00 | 0.00 | 71 | 1004.6 |
| 20260905035324 | 74 | 128 | 0.0 | 1.0 | 0.00 | 0.00 | 0.00 | 71 | 1004.6 |
| 20260905034819 | 74 | 128 | 0.0 | 1.0 | 0.00 | 0.00 | 0.00 | 71 | 1004.7 |
| 20260905034312 | 74 | 195 | 0.0 | 0.0 | 0.00 | 0.00 | 0.00 | 72 | 1004.8 |
| 20260905033806 | 74 | 195 | 0.0 | 2.0 | 0.00 | 0.00 | 0.00 | 71 | 1004.7 |
| 20260905033300 | 74 | 195 | 0.0 | 2.0 | 0.00 | 0.00 | 0.00 | 71 | 1004.8 |
| 20260905032754 | 74 | 277 | 0.0 | 2.0 | 0.00 | 0.00 | 0.00 | 71 | 1004.8 |
| 20260905032249 | 74 | 179 | 1.0 | 3.0 | 0.00 | 0.00 | 0.00 | 71 | 1004.8 |
| 20260905031742 | 74 | 211 | 1.0 | 3.0 | 0.00 | 0.00 | 0.00 | 71 | 1004.9 |
| 20260905031236 | 74 | 176 | 0.0 | 1.0 | 0.00 | 0.00 | 0.00 | 71 | 1004.9 |
| 20260905030731 | 74 | 176 | 0.0 | 2.0 | 0.00 | 0.00 | 0.00 | 71 | 1004.9 |
| 20260905030447 | 74 | 176 | 0.0 | 2.0 | 0.00 | 0.00 | 0.00 | 71 | 1004.9 |
| 20260905025718 | 74 | 276 | 0.0 | 1.0 | 0.00 | 0.00 | 0.00 | 72 | 1004.8 |
| 20260905025212 | 74 | 276 | 0.0 | 1.0 | 0.00 | 0.00 | 0.00 | 72 | 1004.8 |
| 20260905024706 | 74 | 276 | 0.0 | 2.0 | 0.00 | 0.00 | 0.00 | 72 | 1004.8 |
| 20260905024430 | 74 | 284 | 0.0 | 2.0 | 0.00 | 0.00 | 0.00 | 72 | 1004.9 |
| 20260905023654 | 74 | 167 | 0.0 | 0.0 | 0.00 | 0.00 | 0.00 | 72 | 1004.8 |
| 20260905023148 | 74 | 162 | 0.0 | 1.0 | 0.00 | 0.00 | 0.00 | 72 | 1004.9 |
| 20260905022906 | 75 | 200 | 0.0 | 3.0 | 0.00 | 0.00 | 0.00 | 72 | 1004.9 |
| 20260905022136 | 75 | 250 | 0.0 | 3.0 | 0.00 | 0.00 | 0.00 | 72 | 1004.8 |
| 20260905021630 | 75 | 252 | 0.0 | 1.0 | 0.00 | 0.00 | 0.00 | 73 | 1004.7 |
| 20260905021124 | 75 | 274 | 0.0 | 1.0 | 0.00 | 0.00 | 0.00 | 72 | 1004.7 |
| 20260905020618 | 75 | 274 | 0.0 | 1.0 | 0.00 | 0.00 | 0.00 | 73 | 1004.7 |
| 20260905020112 | 75 | 136 | 0.0 | 2.0 | 0.00 | 0.00 | 0.00 | 73 | 1004.7 |
| 20260905015606 | 75 | 231 | 0.0 | 2.0 | 0.00 | 0.00 | 0.00 | 73 | 1004.7 |
| 20260905015100 | 75 | 228 | 0.0 | 1.0 | 0.00 | 0.00 | 0.00 | 73 | 1004.7 |
| 20260905014554 | 75 | 228 | 0.0 | 1.0 | 0.00 | 0.00 | 0.00 | 73 | 1004.7 |
| 20260905014048 | 76 | 228 | 0.0 | 1.0 | 0.00 | 0.00 | 0.00 | 73 | 1004.6 |
| 20260905013806 | 76 | 289 | 0.0 | 1.0 | 0.00 | 0.00 | 0.00 | 73 | 1004.5 |
| 20260905013036 | 76 | 289 | 0.0 | 1.0 | 0.00 | 0.00 | 0.00 | 73 | 1004.5 |
| 20260905012530 | 76 | 135 | 0.0 | 1.0 | 0.00 | 0.00 | 0.00 | 73 | 1004.4 |
| 20260905012025 | 76 | 141 | 0.0 | 0.0 | 0.00 | 0.00 | 0.00 | 73 | 1004.2 |
| 20260905011741 | 76 | 141 | 0.0 | 0.0 | 0.00 | 0.00 | 0.00 | 73 | 1004.2 |
| 20260905011012 | 76 | 141 | 0.0 | 1.0 | 0.00 | 0.00 | 0.00 | 73 | 1004.2 |
| 20260905010506 | 76 | 141 | 0.0 | 0.0 | 0.00 | 0.00 | 0.00 | 74 | 1004.2 |
| 20260905010001 | 76 | 141 | 0.0 | 0.0 | 0.00 | 0.00 | 0.00 | 74 | 1004.1 |
| 20260905005455 | 76 | 141 | 0.0 | 0.0 | 0.00 | 0.00 | 0.00 | 75 | 1004.0 |
| 20260905004949 | 76 | 141 | 0.0 | 0.0 | 0.00 | 0.00 | 0.00 | 75 | 1003.9 |
| 20260905004702 | 76 | 141 | 0.0 | 0.0 | 0.00 | 0.00 | 0.00 | 75 | 1004.2 |
| 20260905003936 | 76 | 141 | 0.0 | 0.0 | 0.00 | 0.00 | 0.00 | 76 | 1004.2 |
| 20260905003430 | 76 | 141 | 0.0 | 0.0 | 0.00 | 0.00 | 0.00 | 76 | 1004.2 |
| 20260905002924 | 76 | 141 | 0.0 | 0.0 | 0.00 | 0.00 | 0.00 | 76 | 1004.1 |
| 20260905002418 | 76 | 141 | 0.0 | 0.0 | 0.00 | 0.00 | 0.00 | 77 | 1004.1 |
| 20260905001912 | 76 | 141 | 0.0 | 0.0 | 0.00 | 0.00 | 0.00 | 77 | 1004.0 |
| 20260905001406 | 76 | 141 | 0.0 | 0.0 | 0.00 | 0.00 | 0.00 | 77 | 1003.9 |
| 20260905000901 | 76 | 141 | 0.0 | 0.0 | 0.00 | 0.00 | 0.00 | 78 | 1003.9 |
| 20260905000355 | 76 | 141 | 0.0 | 0.0 | 0.00 | 0.00 | 0.00 | 78 | 1004.0 |
| 20260904235848 | 76 | 141 | 0.0 | 0.0 | 0.00 | 0.00 | 0.00 | 79 | 1004.0 |
| 20260904235343 | 77 | 141 | 0.0 | 0.0 | 0.00 | 0.00 | 0.00 | 79 | 1004.0 |
| 20260904234836 | 77 | 141 | 0.0 | 0.0 | 0.00 | 0.00 | 0.00 | 79 | 1004.0 |
| 20260904234330 | 77 | 141 | 0.0 | 0.0 | 0.00 | 0.00 | 0.00 | 79 | 1003.9 |
| 20260904233824 | 77 | 141 | 0.0 | 0.0 | 0.00 | 0.00 | 0.00 | 80 | 1003.8 |
| 20260904233318 | 77 | 141 | 0.0 | 0.0 | 0.00 | 0.00 | 0.00 | 80 | 1003.8 |
| 20260904233043 | 77 | 141 | 0.0 | 0.0 | 0.00 | 0.00 | 0.00 | 80 | 1003.8 |
| 20260904232307 | 77 | 141 | 0.0 | 0.0 | 0.00 | 0.00 | 0.00 | 81 | 1003.8 |
| 20260904231800 | 77 | 141 | 0.0 | 0.0 | 0.00 | 0.00 | 0.00 | 81 | 1003.8 |
| 20260904231253 | 78 | 141 | 0.0 | 0.0 | 0.00 | 0.00 | 0.00 | 81 | 1003.9 |
| 20260904230748 | 78 | 141 | 0.0 | 0.0 | 0.00 | 0.00 | 0.00 | 81 | 1003.8 |
| 20260904230501 | 78 | 141 | 0.0 | 0.0 | 0.00 | 0.00 | 0.00 | 81 | 1003.9 |
| 20260904225740 | 78 | 141 | 0.0 | 0.0 | 0.00 | 0.00 | 0.00 | 81 | 1004.0 |
| 20260904225237 | 78 | 141 | 0.0 | 0.0 | 0.00 | 0.00 | 0.00 | 82 | 1004.0 |
| 20260904224956 | 78 | 141 | 0.0 | 0.0 | 0.00 | 0.00 | 0.00 | 82 | 1004.0 |
| 20260904224238 | 79 | 141 | 0.0 | 0.0 | 0.00 | 0.00 | 0.00 | 82 | 1003.9 |
| 20260904223735 | 78 | 141 | 0.0 | 1.0 | 0.00 | 0.00 | 0.00 | 82 | 1003.8 |
| 20260904223236 | 78 | 141 | 0.0 | 1.0 | 0.00 | 0.00 | 0.00 | 82 | 1003.8 |
| 20260904223002 | 78 | 141 | 0.0 | 1.0 | 0.00 | 0.00 | 0.00 | 82 | 1003.9 |